Actualité

 

LogoChallengeNewsletter

Challenge du Pays Boulonnais

Voir le règlement complet du Challenge du Pays Boulonnais 2019

Classement aprés 10 épreuves au 06/12/19.

La cagnotte "Chronopale 2019" à partager entre tous les coureurs classés sur les 11 épreuves sera de 1 200€

Aprés 10 épreuves vous êtes 22 à pouvoir vous partager la cagnotte.

Date des épreuves

10/02/19  Les 6 Miles de Pont de Briques

23/03/19 Les Foulées Guinoises 10 Km

24/03/19  Foulées du Printemps à Nesles 10 Km

01/05/19  La Ronde du Fort de l'Heurt à Le Portel 10 Km (nature plage et falaise)

25/05/19  Semi Marathon de la Terre des 2 Caps à Wacquinghem (Sauf pour les cadets) 

09/06/19  La Win Run à Wimereux 10 Km

30/06/19  Boulogne 10 Km

13/10/19  Les Foulées de la Santé à Saint Martin 10 Km

17/11/19 Les Foulées Outreloises à Outreau  10 Km       

24/11/19  Les Foulées de la Sainte Catherine à Menneville 10 Km

07/12/19  Rues & Run Desvroises 10 Km

 

Nous contacter

Chronopale
59 Rue Léonce TOBO
62200 Boulogne sur mer
06 60 17 22 13
contact@chronopale.fr
www.chronopale.fr

 

17,4Km

17,4 Km Trail des Mingeux de Maguettes du 24/11/19 (Reelle 17,4)
Rang Dossard Nom Prénom Temps Cat Rang Cat Ecart Ecart Cat Club Vitesse Km/h Temps au Km
1 908 MATHISSART Thierry 01:05:46 SEM 1 00:00:00 00:00:00 15,874 03:47
2 999 MOWAT Etienne 01:06:25 SEM 2 00:00:39 00:00:39 Lille uc athletisme 15,719 03:49
3 802 DAUCHEZ Lucas 01:07:19 SEM 3 00:01:33 00:01:33 Artois athletisme 15,509 03:52
4 490 LEBOUCHER Jerome 01:09:06 SEM 4 00:03:20 00:03:20 15,109 03:58
5 439 RENARD Emmanuel 01:09:46 M1M 1 00:04:00 00:00:00 Triathlon club montreuillois 14,964 04:01
6 769 LEMOINE Vincent 01:10:47 M1M 2 00:05:01 00:01:01 Usal 14,749 04:04
7 921 GAXATTE Cedric 01:11:16 M2M 1 00:05:30 00:00:00 Lille metropole athletisme 14,649 04:06
8 830 MARTINACHE Arnaud 01:11:55 M2M 2 00:06:09 00:00:39 14,517 04:08
9 1126 BIGO Mathias 01:12:32 SEM 5 00:06:46 00:06:46 14,393 04:10
10 443 MOUQUIN Olivier 01:13:02 M0M 1 00:07:16 00:00:00 14,295 04:12
11 1091 PROYART Allan 01:13:07 M1M 3 00:07:21 00:03:21 Vmv vis en artois 14,279 04:12
12 1121 RIEZ Gael 01:13:24 SEM 6 00:07:38 00:07:38 Asra 14,223 04:13
13 842 LARDIER Alain 01:13:53 M3M 1 00:08:07 00:00:00 Rca 14,130 04:15
14 1136 BELLEPERCHE Tanguy 01:14:14 SEM 7 00:08:28 00:08:28 14,064 04:16
15 1109 SENECHAL Pierre-louis 01:14:14 SEM 8 00:08:28 00:08:28 Halluin triathlon 14,064 04:16
16 532 SAIDI Hakim 01:14:19 M0M 2 00:08:33 00:01:17 Rc arras 14,048 04:16
17 1072 VAST Sebastien 01:14:29 M1M 4 00:08:43 00:04:43 Ac cambrai 14,017 04:17
18 415 LABENNE Simon 01:14:45 SEM 9 00:08:59 00:08:59 13,967 04:18
19 661 DUPIC Stephane 01:14:51 M2M 3 00:09:05 00:03:35 13,948 04:18
20 1067 DELEPORTE Antoine 01:15:01 SEM 10 00:09:15 00:09:15 Rc arras triathlon 13,917 04:19
21 882 MACQUET Corentin 01:15:22 SEM 11 00:09:36 00:09:36 Rc arras 13,852 04:20
22 612 FLORENT Olivier 01:15:23 M3M 2 00:09:37 00:01:30 Rc arras section trail 13,849 04:20
23 1132 ANDRIEU Jean Baptiste 01:15:42 M0M 3 00:09:56 00:02:40 13,791 04:21
24 1044 PETITFILS Aurelien 01:15:48 SEM 12 00:10:02 00:10:02 Rc arras 13,773 04:21
25 578 DELCROIX Yann 01:15:56 M1M 5 00:10:10 00:06:10 Us marquette 13,749 04:22
26 1027 MINART Baptiste 01:16:15 SEM 13 00:10:29 00:10:29 Run’in club 13,692 04:23
27 1088 BLIN Laurent 01:16:22 M1M 6 00:10:36 00:06:36 Crazy and tri 13,671 04:23
28 648 LUCAS Gabin 01:16:24 SEM 14 00:10:38 00:10:38 13,665 04:23
29 1007 COUTOULY Maxime 01:16:27 SEM 15 00:10:41 00:10:41 13,656 04:24
30 767 ROCHE Xavier 01:16:47 M0M 4 00:11:01 00:03:45 13,597 04:25
31 924 LAGACHE Vincent 01:16:47 M0M 5 00:11:01 00:03:45 Ac villeneuve d'ascq 13,597 04:25
32 1113 GELOEN Clement 01:16:55 SEM 16 00:11:09 00:11:09 13,573 04:25
33 834 DUQUESNOY Mathieu 01:17:04 M0M 6 00:11:18 00:04:02 Servins athletic club 13,547 04:26
34 1021 CARTON Baptiste 01:17:15 ESM 1 00:11:29 00:00:00 13,515 04:26
35 752 BOURDON Emmanuel 01:17:24 M2M 4 00:11:38 00:06:08 13,488 04:27
36 555 WADOUX Vincent 01:17:29 M1M 7 00:11:43 00:07:43 13,474 04:27
37 1102 COUSIN Antoine 01:17:32 M0M 7 00:11:46 00:04:30 Us biache 13,465 04:27
38 839 PAIN Martial 01:17:39 M3M 3 00:11:53 00:03:46 13,445 04:28
39 1025 DUTERIEZ Jean-yves 01:17:44 SEM 17 00:11:58 00:11:58 Acva 13,431 04:28
40 1130 RIEMENSBERGER Daniel 01:17:50 M3M 4 00:12:04 00:03:57 13,413 04:28
41 843 SALINGUE Geoffrey 01:17:55 M1M 8 00:12:09 00:08:09 Usa lievin 13,399 04:29
42 833 MUYS Maxime 01:18:46 SEM 18 00:13:00 00:13:00 Servins athletic club 13,254 04:32
43 743 POULAIN Jerome 01:18:58 M0M 8 00:13:12 00:05:56 13,221 04:32
44 785 DELVILLE Jerome 01:19:03 M2M 5 00:13:17 00:07:47 13,207 04:33
45 780 MARQUILLY Alexandre 01:19:15 SEM 19 00:13:29 00:13:29 13,174 04:33
46 606 BREMBOR Gwenael 01:19:23 SEM 20 00:13:37 00:13:37 Rca trail 13,151 04:34
47 840 BOUTON Benoit 01:19:34 SEM 21 00:13:48 00:13:48 Berck opale sud triathlon 13,121 04:34
48 622 ROMESTIN Florian 01:19:36 M0M 9 00:13:50 00:06:34 Allez les verts 13,116 04:34
49 693 DELEVALLEE Guillaume 01:19:50 M0M 10 00:14:04 00:06:48 S/l vermelles ac 13,077 04:35
50 1066 DELROISSE Rudy 01:20:05 M1M 9 00:14:19 00:10:19 Henin endurance team 13,036 04:36
51 513 BUCAILLE Johnny 01:20:09 M1M 10 00:14:23 00:10:23 13,026 04:36
52 493 DELHAMAIDE Thomas 01:20:12 M1M 11 00:14:26 00:10:26 13,017 04:37
53 831 EVERAERE Thomas 01:20:15 M0M 11 00:14:29 00:07:13 Tri hazebrouck ntmf 13,009 04:37
54 884 PERRET Didier 01:20:36 SEM 22 00:14:50 00:14:50 Blaringhem trail 12,953 04:38
55 950 LOOTVOET Olivier 01:20:42 SEM 23 00:14:56 00:14:56 Acva / vafa 12,937 04:38
56 715 RENAUX Thierry 01:20:52 M1M 12 00:15:06 00:11:06 12,910 04:39
57 1016 BEVE Sebastien 01:20:55 M1M 13 00:15:09 00:11:09 Vafa trail 12,902 04:39
58 1137 CONTARDO Kevin 01:20:59 SEM 24 00:15:13 00:15:13 12,892 04:39
59 871 AMEUR Nori 01:21:20 M2M 6 00:15:34 00:10:04 12,836 04:40
60 551 DEPELCHIN Julien 01:21:36 M0M 12 00:15:50 00:08:34 Digestscience 12,794 04:41
61 850 VERGEOT Antoine 01:21:53 SEM 25 00:16:07 00:16:07 12,750 04:42
62 414 WALLARD Matthieu 01:21:57 M0M 13 00:16:11 00:08:55 12,739 04:43
63 1055 PARENT Julien 01:22:40 M1M 14 00:16:54 00:12:54 12,629 04:45
64 599 DELIESSCHE Yannick 01:22:53 M1M 15 00:17:07 00:13:07 Rca triathlon 12,596 04:46
65 816 MONNIER Ronald 01:22:57 M2M 7 00:17:11 00:11:41 Foulees athletiques de wasquehal 12,586 04:46
66 1119 DESPREZ Franck 01:23:07 M2M 8 00:17:21 00:11:51 12,561 04:47
67 586 PIGASSE Julien 01:23:08 M1M 16 00:17:22 00:13:22 12,558 04:47
68 818 MULLE Vincent 01:23:09 SEM 26 00:17:23 00:17:23 Foulees athletiques de wasquehal 12,556 04:47
69 634 SELLIEZ Matthieu 01:23:16 M1M 17 00:17:30 00:13:30 Team gravelines trail 12,538 04:47
70 723 FINAS Melanie 01:23:22 SEF 1 00:17:36 00:00:00 Satuc 12,523 04:47
71 1105 SENECHAL Gilles 01:23:37 M0M 14 00:17:51 00:10:35 12,486 04:48
72 796 PAIN Alexis 01:23:38 ESM 2 00:17:52 00:06:23 12,483 04:48
73 1120 DEVOS Gatien 01:23:39 SEM 27 00:17:53 00:17:53 12,481 04:48
74 543 DEVIS Maxime 01:23:45 M1M 18 00:17:59 00:13:59 Rc arras 12,466 04:49
75 592 SOLOY Matthieu 01:23:49 SEM 28 00:18:03 00:18:03 12,456 04:49
76 1029 LETAILLE Cedric 01:23:51 M2M 9 00:18:05 00:12:35 12,451 04:49
77 1135 HENOCQ Stephen 01:23:52 M1M 19 00:18:06 00:14:06 12,448 04:49
78 631 PETIT Adrien 01:23:53 SEM 29 00:18:07 00:18:07 As simencourt 12,446 04:49
79 618 GRIMAUX Jean marc 01:24:23 SEM 30 00:18:37 00:18:37 12,372 04:51
80 801 MOUTON Renaud 01:24:24 M0M 15 00:18:38 00:11:22 12,370 04:51
81 705 LORBER Robin 01:24:25 SEM 31 00:18:39 00:18:39 12,367 04:51
82 1123 VANDRISSE Guillaume 01:24:31 M1M 20 00:18:45 00:14:45 Les loulous 12,353 04:51
83 1078 LARDIER Patrick 01:24:38 M4M 1 00:18:52 00:00:00 12,336 04:52
84 888 HERBET Anne-laure 01:24:38 SEF 2 00:18:52 00:01:16 12,336 04:52
85 1001 COLOMB Bertrand 01:24:40 M2M 10 00:18:54 00:13:24 12,331 04:52
86 724 MORAND Francis 01:24:40 M2M 11 00:18:54 00:13:24 12,331 04:52
87 704 CAMPOS Nicolas 01:24:42 M3M 5 00:18:56 00:10:49 12,326 04:52
88 1090 FRAMERY Maxime 01:24:46 M0M 16 00:19:00 00:11:44 12,316 04:52
89 714 PRUVOST Philippe 01:24:54 M3M 6 00:19:08 00:11:01 12,297 04:53
90 1110 DUHEM Angele 01:24:55 SEF 3 00:19:09 00:01:33 Halluin triathlon 12,294 04:53
91 523 NAVILLE Thierry 01:24:57 M3M 7 00:19:11 00:11:04 Raid-up 12,290 04:53
92 695 ROBRIQUET Vincent 01:25:05 M1M 21 00:19:19 00:15:19 12,270 04:53
93 629 BELIN Melchior 01:25:09 SEM 32 00:19:23 00:19:23 12,261 04:54
94 745 GUIBERT Baudouin 01:25:11 M2M 12 00:19:25 00:13:55 12,256 04:54
95 825 GODFROY Jessy 01:25:16 SEM 33 00:19:30 00:19:30 12,244 04:54
96 847 ROQUE Herve 01:25:19 M3M 8 00:19:33 00:11:26 Fltri 12,237 04:54
97 1035 DERACHE Cecile 01:25:20 M0F 1 00:19:34 00:00:00 Vermelles athletic club 12,234 04:54
98 918 NICOLAZZI Paul 01:25:21 SEM 34 00:19:35 00:19:35 12,232 04:54
99 827 DELOMMEZ Jeremy 01:25:24 M0M 17 00:19:38 00:12:22 12,225 04:54
100 635 HERINGUEZ Damien 01:25:26 M0M 18 00:19:40 00:12:24 Guibole et guidon 12,220 04:55
101 740 GOSSET Mathieu 01:25:31 SEM 35 00:19:45 00:19:45 12,208 04:55
102 527 LOCHE Vincent 01:25:35 M4M 2 00:19:49 00:00:57 12,199 04:55
103 901 CUVILLIER Anne-sophie 01:25:37 SEF 4 00:19:51 00:02:15 Rca athletisme 12,194 04:55
104 861 BLONDEL Julien 01:25:39 M0M 19 00:19:53 00:12:37 12,189 04:55
105 996 DEVLAMINCK Marc 01:25:42 M2M 13 00:19:56 00:14:26 Rca 12,182 04:56
106 488 MERCHIER Alain 01:25:46 M3M 9 00:20:00 00:11:53 Les givres de bertrancourt 12,173 04:56
107 521 BAUDET Christian 01:25:54 M3M 10 00:20:08 00:12:01 Rc arras 12,154 04:56
108 649 DEBUT Yann 01:25:55 M1M 22 00:20:09 00:16:09 Rc arras 12,151 04:56
109 1092 TAVERNESE Aurelio 01:26:15 M0M 20 00:20:29 00:13:13 Cpss carvin 12,104 04:57
110 828 MARECAUX Laurent 01:26:15 M2M 14 00:20:29 00:14:59 Acva 12,104 04:57
111 466 MIROUX Ludovic 01:26:18 SEM 36 00:20:32 00:20:32 12,097 04:58
112 706 DUBOIS Dominique 01:26:23 M4M 3 00:20:37 00:01:45 Jc bully 12,086 04:58
113 984 GRANADO Jean-baptiste 01:26:30 M2M 15 00:20:44 00:15:14 Css 12,069 04:58
114 620 NOESON Thomas 01:26:36 JUM 1 00:20:50 00:00:00 12,055 04:59
115 728 DELANNNOIS Sebastien 01:26:44 M1M 23 00:20:58 00:16:58 12,037 04:59
116 862 FACQ Joris 01:26:58 M1M 24 00:21:12 00:17:12 12,005 05:00
117 1018 STRECK Antoine 01:26:58 M0M 21 00:21:12 00:13:56 12,005 05:00
118 927 HALLAF Francois 01:26:59 M4M 4 00:21:13 00:02:21 12,002 05:00
119 770 VAN PEUTER Mickael 01:27:02 SEM 37 00:21:16 00:21:16 11,995 05:00
120 870 JACQUIN David 01:27:09 M3M 11 00:21:23 00:13:16 Bethune athletisme 11,979 05:01
121 768 BANTEGNIES Gauthier 01:27:25 ESM 3 00:21:39 00:10:10 11,943 05:01
122 899 DELANNOY Vincent 01:27:29 M2M 16 00:21:43 00:16:13 11,934 05:02
123 658 DEGRUGILLIER Frederic 01:27:31 M2M 17 00:21:45 00:16:15 11,929 05:02
124 959 DHAINAUT Michael 01:27:32 M2M 18 00:21:46 00:16:16 Carabiniers de billy-montigny 11,927 05:02
125 560 STIEVENART Eric 01:27:42 M1M 25 00:21:56 00:17:56 11,904 05:02
126 617 CHAMILLARD Arnaud 01:27:45 M0M 22 00:21:59 00:14:43 Rc arras triathlon 11,897 05:03
127 928 COLIN Denis 01:27:47 M2M 19 00:22:01 00:16:31 11,893 05:03
128 544 JAFFRE Sebastien 01:27:47 M1M 26 00:22:01 00:18:01 Rc arras 11,893 05:03
129 965 JOLY Nicolas 01:27:51 M1M 27 00:22:05 00:18:05 Rcarras 11,884 05:03
130 519 CENSE Gilbert 01:27:53 SEM 38 00:22:07 00:22:07 11,879 05:03
131 562 WAVELET Mathieu 01:28:23 SEM 39 00:22:37 00:22:37 11,812 05:05
132 1024 GLACHET Benoit 01:28:25 SEM 40 00:22:39 00:22:39 11,808 05:05
133 759 HARMEL Thibault 01:28:27 M0M 23 00:22:41 00:15:25 La vie active 11,803 05:05
134 567 CARRE Eric 01:28:32 M1M 28 00:22:46 00:18:46 11,792 05:05
135 462 SOCHACKI Nicolas 01:28:33 SEM 41 00:22:47 00:22:47 11,790 05:05
136 938 LAURENT Sophie 01:28:35 M0F 2 00:22:49 00:03:15 Cbm 11,786 05:05
137 572 HONORE Augustin 01:28:39 SEM 42 00:22:53 00:22:53 11,777 05:06
138 685 TETART Mickael 01:28:45 M1M 29 00:22:59 00:18:59 11,763 05:06
139 876 DESSERRE Jeremy 01:28:49 M0M 24 00:23:03 00:15:47 11,755 05:06
140 779 TACK Vassily 01:28:49 ESM 4 00:23:03 00:11:34 Racing club arras triathlon 11,755 05:06
141 955 VANELLE Thomas 01:28:57 SEM 43 00:23:11 00:23:11 Bethune athletisme 11,737 05:07
142 1112 BARAN Kevin 01:29:01 M0M 25 00:23:15 00:15:59 11,728 05:07
143 1034 HIEST Ludovic 01:29:03 SEM 44 00:23:17 00:23:17 Vermelles athletic club 11,724 05:07
144 1043 WOZNIAK David 01:29:13 M1M 30 00:23:27 00:19:27 11,702 05:08
145 501 DEBOOSERE Valere 01:29:17 M1M 31 00:23:31 00:19:31 11,693 05:08
146 1114 DELEFORGE Theo 01:29:18 SEM 45 00:23:32 00:23:32 11,691 05:08
147 997 CHOQUET Olivier 01:29:18 M2M 20 00:23:32 00:18:02 11,691 05:08
148 980 BOUDOUX Aurelien 01:29:21 M0M 26 00:23:35 00:16:19 11,684 05:08
149 503 GAGNARD Anais 01:29:22 SEF 5 00:23:36 00:06:00 11,682 05:08
150 502 VICARD Matthieu 01:29:23 SEM 46 00:23:37 00:23:37 11,680 05:08
151 604 RIGAULT Christophe 01:29:34 M2M 21 00:23:48 00:18:18 11,656 05:09
152 956 DELVIGNE Marc 01:29:47 M1M 32 00:24:01 00:20:01 Bethune athletisme 11,628 05:10
153 1085 JACKOWSKI Julie 01:29:49 M0F 3 00:24:03 00:04:29 Cbm 11,624 05:10
154 1064 LORTHIOIS Valentin 01:30:00 SEM 47 00:24:14 00:24:14 Jcbb 11,600 05:10
155 478 BROGNARD Stephanie 01:30:09 M2F 1 00:24:23 00:00:00 11,581 05:11
156 993 BARROIS Jerome 01:30:10 M1M 33 00:24:24 00:20:24 Acva 11,579 05:11
157 777 DUBOIS Jeremy 01:30:12 SEM 48 00:24:26 00:24:26 Rc arras 11,574 05:11
158 484 DONNIZAUX Antoine 01:30:14 M1M 34 00:24:28 00:20:28 11,570 05:11
159 499 JEANTON Bruno 01:30:14 SEM 49 00:24:28 00:24:28 Urkirolak triathlon 11,570 05:11
160 789 RAHEM Yannick 01:30:15 M1M 35 00:24:29 00:20:29 11,568 05:11
161 824 VANDEWALLE Karl 01:30:24 M2M 22 00:24:38 00:19:08 Foulees athletiques de wasquehal 11,549 05:12
162 1056 GAUDRY Damien 01:30:32 M1M 36 00:24:46 00:20:46 Team aj trouv'tout flesquieres 11,532 05:12
163 711 RICART Maxime 01:30:33 M2M 23 00:24:47 00:19:17 11,530 05:12
164 1049 OURAGHI Mohamed 01:30:35 M0M 27 00:24:49 00:17:33 Foulees des ecoles 11,525 05:12
165 1139 GALLOT Sophie 01:30:45 M1F 1 00:24:59 00:00:00 11,504 05:13
166 1096 BREBION Mathieu 01:30:48 M1M 37 00:25:02 00:21:02 11,498 05:13
167 448 DILLY Olivier 01:30:49 M2M 24 00:25:03 00:19:33 Jogging club montignois jcm 11,496 05:13
168 894 TIERSEN Philippe 01:30:59 M1M 38 00:25:13 00:21:13 11,475 05:14
169 1098 FRANCOIS Philippe 01:31:06 M2M 25 00:25:20 00:19:50 11,460 05:14
170 717 VANHOVE Arnaud 01:31:09 M2M 26 00:25:23 00:19:53 11,454 05:14
171 561 GUFFROY Maria 01:31:10 M1F 2 00:25:24 00:00:25 Jog ablain 11,452 05:14
172 406 DEVOS Jeremie 01:31:13 M2M 27 00:25:27 00:19:57 Jogging club de billy bercleau 11,445 05:15
173 1006 BREMBOR Thomas 01:31:18 SEM 50 00:25:32 00:25:32 Rc arras 11,435 05:15
174 583 BAVANT Antonin 01:31:21 SEM 51 00:25:35 00:25:35 11,429 05:15
175 771 HULOT Romain 01:31:21 SEM 52 00:25:35 00:25:35 11,429 05:15
176 427 PIERRU Jerome 01:31:29 M1M 39 00:25:43 00:21:43 Triatlon club avionnais 11,412 05:15
177 559 APPOURCHAUX Bertrand 01:31:34 M3M 12 00:25:48 00:17:41 11,402 05:16
178 640 BLANCHOZ Christophe 01:31:36 M2M 28 00:25:50 00:20:20 Csfm running 11,397 05:16
179 701 LEBRUN Auguste 01:31:43 M5M 1 00:25:57 00:00:00 11,383 05:16
180 452 LEGRAND Vincent 01:31:52 M1M 40 00:26:06 00:22:06 11,364 05:17
181 1103 MIRO Loic 01:31:55 M0M 28 00:26:09 00:18:53 11,358 05:17
182 966 GUEANT Sebastien 01:32:15 M0M 29 00:26:29 00:19:13 11,317 05:18
183 412 POULTIER Stephane 01:32:17 M3M 13 00:26:31 00:18:24 11,313 05:18
184 410 REGOST Elie 01:32:17 SEM 53 00:26:31 00:26:31 Rlcp 11,313 05:18
185 841 THOMAS Maxime 01:32:27 SEM 54 00:26:41 00:26:41 11,293 05:19
186 671 KUZNICKI Pierre 01:32:33 M0M 30 00:26:47 00:19:31 Usa lievin 11,280 05:19
187 848 POIRET Fabrice 01:32:34 M2M 29 00:26:48 00:21:18 Sport coach sante henin 11,278 05:19
188 857 NOEL Johann 01:32:36 SEM 55 00:26:50 00:26:50 11,274 05:19
189 556 MORREELS Nicolas 01:32:36 M0M 31 00:26:50 00:19:34 11,274 05:19
190 721 BONDUELLE Olivier 01:32:40 M0M 32 00:26:54 00:19:38 11,266 05:20
191 730 DERENSY Antoine 01:32:46 SEM 56 00:27:00 00:27:00 11,254 05:20
192 663 CAPPELAERE Remi 01:32:46 M0M 33 00:27:00 00:19:44 11,254 05:20
193 677 OGUET Gregory 01:32:54 M0M 34 00:27:08 00:19:52 Fit and run 11,238 05:20
194 1104 DUFOREST Loic 01:32:55 M0F 4 00:27:09 00:07:35 11,236 05:20
195 934 BIERVOIS Stephane 01:32:58 M0M 35 00:27:12 00:19:56 11,230 05:21
196 692 DUBOIS Celia 01:33:00 SEF 6 00:27:14 00:09:38 S/l vermelles ac 11,226 05:21
197 650 VICTORIA Anthony 01:33:01 M0M 36 00:27:15 00:19:59 Coureurs a pic 11,224 05:21
198 746 ROBERT Yannick 01:33:02 M1M 41 00:27:16 00:23:16 Coach sport sante 11,222 05:21
199 411 PERIAU Cedric 01:33:03 M1M 42 00:27:17 00:23:17 11,220 05:21
200 1099 LEMAN Gatien 01:33:03 M2M 30 00:27:17 00:21:47 11,220 05:21
201 885 DELIGNY Samuel 01:33:07 M2M 31 00:27:21 00:21:51 11,212 05:21
202 893 MACOR Tony 01:33:08 M1M 43 00:27:22 00:23:22 Les foulees des ecoles 11,210 05:21
203 623 HOCHE Jean-benoit 01:33:09 M2M 32 00:27:23 00:21:53 11,208 05:21
204 1122 POCHET Aurelien 01:33:14 M0M 37 00:27:28 00:20:12 11,198 05:21
205 584 LECOUTRE Pascal 01:33:25 M2M 33 00:27:39 00:22:09 Frevent olympique club 11,176 05:22
206 922 CRESSENT Gabriel 01:33:37 M1M 44 00:27:51 00:23:51 Artois athletisme 11,152 05:23
207 765 DAVID Emmanuel 01:33:48 M2M 34 00:28:02 00:22:32 11,130 05:23
208 976 KOITKA Thierry 01:33:59 M2M 35 00:28:13 00:22:43 Henin endurance team 11,108 05:24
209 917 REGNIER Olivier 01:34:01 M2M 36 00:28:15 00:22:45 11,104 05:24
210 660 LEGRAND Fred 01:34:03 M2M 37 00:28:17 00:22:47 11,100 05:24
211 424 DEJAEGERE Denis 01:34:03 M1M 45 00:28:17 00:24:17 Triathlon club avionnais 11,100 05:24
212 1131 DELANNOY Xavier 01:34:09 M0M 38 00:28:23 00:21:07 11,089 05:25
213 986 FATAH Farid 01:34:09 M1M 46 00:28:23 00:24:23 11,089 05:25
214 1080 VANKERCKHOVEN Benjamin 01:34:10 SEM 57 00:28:24 00:28:24 11,087 05:25
215 970 WADBLED Maxime 01:34:15 SEM 58 00:28:29 00:28:29 11,077 05:25
216 898 DEPRET Jeremy 01:34:21 M0M 39 00:28:35 00:21:19 11,065 05:25
217 494 GIL David 01:34:26 M2M 38 00:28:40 00:23:10 11,055 05:26
218 686 HUCK Cassandre 01:34:31 ESF 1 00:28:45 00:00:00 Triathlon club lievin 11,046 05:26
219 851 SNELLA Dominique 01:34:33 M0M 40 00:28:47 00:21:31 Coach sport sante 11,042 05:26
220 590 DAUCHEZ Leon 01:34:45 M4M 5 00:28:59 00:10:07 11,018 05:27
221 920 DURAND Gauthier 01:34:48 SEM 59 00:29:02 00:29:02 11,013 05:27
222 516 TRENTESAUX Matthieu 01:34:50 M1M 47 00:29:04 00:25:04 11,009 05:27
223 426 LETELLIER Pascal 01:34:50 M3M 14 00:29:04 00:20:57 11,009 05:27
224 873 GIZZI Dorothee 01:34:51 M3F 1 00:29:05 00:00:00 11,007 05:27
225 1084 CHACHULSKI Matthieu 01:34:57 M1M 48 00:29:11 00:25:11 10,995 05:27
226 476 MAERTEN Remy 01:35:02 M0M 41 00:29:16 00:22:00 10,986 05:28
227 1062 LORTHIOIS Philippe 01:35:08 M4M 6 00:29:22 00:10:30 Jcbb 10,974 05:28
228 607 VERMEERSCH Johnathan 01:35:09 M2M 39 00:29:23 00:23:53 10,972 05:28
229 709 PRINCE Eric 01:35:09 M3M 15 00:29:23 00:21:16 Coach sport sante 10,972 05:28
230 1032 REPILET Christian 01:35:16 M1M 49 00:29:30 00:25:30 Vermelles athletic club 10,959 05:29
231 736 PERCEVAUX David 01:35:19 M2M 40 00:29:33 00:24:03 10,953 05:29
232 778 TACK Olivier 01:35:21 M3M 16 00:29:35 00:21:28 Racing club arras triahtlon 10,949 05:29
233 588 BONOMO Jeanne 01:35:25 SEF 7 00:29:39 00:12:03 Lille triathlon 10,941 05:29
234 645 ROGEZ Christian 01:35:26 M3M 17 00:29:40 00:21:33 Csfm running 10,940 05:29
235 421 MAYEUX Cyril 01:35:29 M1M 50 00:29:43 00:25:43 10,934 05:29
236 804 BAHOR Benoit 01:35:31 M0M 42 00:29:45 00:22:29 Foulees athletiques de wasquehal 10,930 05:29
237 814 LEFEBVRE Julien 01:35:35 M1M 51 00:29:49 00:25:49 Foulees athletiques de wasquehal 10,922 05:30
238 625 MONTOIS Jerome 01:35:37 M0M 43 00:29:51 00:22:35 Non 10,919 05:30
239 477 DEWITTE Quentin 01:35:40 SEM 60 00:29:54 00:29:54 10,913 05:30
240 1031 GERNEZ Mathieu 01:35:40 SEM 61 00:29:54 00:29:54 Vermelles athletic club 10,913 05:30
241 1125 MERY DE MONTIGNY Maud 01:35:42 M0F 5 00:29:56 00:10:22 10,909 05:30
242 690 SCHEERS Frederic 01:35:43 M4M 7 00:29:57 00:11:05 10,907 05:30
243 803 BERNIER Caroline 01:35:47 SEF 8 00:30:01 00:12:25 Foulees athletiques de wasquehal 10,900 05:30
244 808 BRUNEEL Guillaume 01:35:47 M2M 41 00:30:01 00:24:31 Foulees athletiques de wasquehal 10,900 05:30
245 822 STRUNC Herve 01:35:52 M2M 42 00:30:06 00:24:36 Foulees athletiques de wasquehal 10,890 05:31
246 766 THIBAUT Michel 01:35:54 M1M 52 00:30:08 00:26:08 Courir a verquin 10,886 05:31
247 967 COEVOET Hugues 01:35:54 M1M 53 00:30:08 00:26:08 10,886 05:31
248 581 RIVIERE Robert 01:36:00 M4M 8 00:30:14 00:11:22 Vuc sports nature 10,875 05:31
249 914 CANDELIER Boris 01:36:04 M1M 54 00:30:18 00:26:18 10,867 05:31
250 485 DELEPIERRE Nicolas 01:36:05 M2M 43 00:30:19 00:24:49 10,866 05:31
251 933 DEPARIS Maxime 01:36:08 M1M 55 00:30:22 00:26:22 Royalpelforce 10,860 05:31
252 931 CRETON Arnaud 01:36:15 SEM 62 00:30:29 00:30:29 Runindouai 10,847 05:32
253 416 FRULEUX Olivier 01:36:25 M0M 44 00:30:39 00:23:23 10,828 05:32
254 509 DROQUE Kevin 01:36:26 SEM 63 00:30:40 00:30:40 10,826 05:33
255 969 RZASA Patrick 01:36:52 M4M 9 00:31:06 00:12:14 10,778 05:34
256 1124 LEFEBVRE Florian 01:36:57 SEM 64 00:31:11 00:31:11 10,768 05:34
257 475 BOURDIN Christophe 01:36:58 M3M 18 00:31:12 00:23:05 Servins ac 10,767 05:34
258 657 LEMAIRE Christophe 01:37:01 M4M 10 00:31:15 00:12:23 10,761 05:35
259 1008 MENTION Julien 01:37:10 M1M 56 00:31:24 00:27:24 10,744 05:35
260 892 VANDORT Claude 01:37:10 M2M 44 00:31:24 00:25:54 10,744 05:35
261 829 DELENCLOS Didier 01:37:12 M3M 19 00:31:26 00:23:19 Rcarras 10,741 05:35
262 738 D'HALLUIN Pierre-marie 01:37:15 M4M 11 00:31:29 00:12:37 10,735 05:35
263 431 FRERE Jerome 01:37:19 M0M 45 00:31:33 00:24:17 Gravelines natation / cot 10,728 05:36
264 919 THIBAULT Durin 01:37:22 SEM 65 00:31:36 00:31:36 10,722 05:36
265 643 LECLERCQ Laurent 01:37:27 M2M 45 00:31:41 00:26:11 Csfm running 10,713 05:36
266 1073 MORONVAL Stephane 01:37:30 M3M 20 00:31:44 00:23:37 10,708 05:36
267 1075 MASSON Romain 01:37:32 M0M 46 00:31:46 00:24:30 Jcbb 10,704 05:36
268 944 LEJEUNE Julien 01:37:32 SEM 66 00:31:46 00:31:46 10,704 05:36
269 1052 FOUCAUT Philippe 01:37:35 M5M 2 00:31:49 00:05:52 Jog ablain 10,699 05:36
270 504 DELETTREZ Cindy 01:37:35 M0F 6 00:31:49 00:12:15 10,699 05:36
271 1010 UROZ VENTURA Jerome 01:37:38 M1M 57 00:31:52 00:27:52 10,693 05:37
272 807 COUSSIEU Emmanuel 01:37:39 M3M 21 00:31:53 00:23:46 Foulees athletiques de wasquehal 10,691 05:37
273 1071 DUBOIS Julie 01:37:42 M0F 7 00:31:56 00:12:22 Camb 10,686 05:37
274 500 MUCCIANTE Roberto 01:37:44 M2M 46 00:31:58 00:26:28 10,682 05:37
275 836 MALVOISIN Ludovic 01:37:57 M0M 47 00:32:11 00:24:55 Ac bapaume 10,658 05:38
276 1142 SYLVESTRE Maxime 01:37:58 M1M 58 00:32:12 00:28:12 10,657 05:38
277 1094 DUMORTIER Stephane 01:37:58 M2M 47 00:32:12 00:26:42 Expandables 10,657 05:38
278 958 ROLAND Eric 01:38:00 M2M 48 00:32:14 00:26:44 10,653 05:38
279 459 VASSEUR Arnaud 01:38:18 M2M 49 00:32:32 00:27:02 10,621 05:39
280 1065 DUHEM Patrice 01:38:18 M2M 50 00:32:32 00:27:02 Jcbb 10,621 05:39
281 929 COIN Nicolas 01:38:19 M1M 59 00:32:33 00:28:33 10,619 05:39
282 886 BOULET Morgan 01:38:28 SEM 67 00:32:42 00:32:42 10,603 05:40
283 859 MASCLET Emmanuel 01:38:28 M3M 22 00:32:42 00:24:35 Artois athletisme 10,603 05:40
284 425 MALLARTE Vincent 01:38:33 M4M 12 00:32:47 00:13:55 Triathlon club avionnais 10,594 05:40
285 702 STASZEWSKI Frederic 01:38:34 M1M 60 00:32:48 00:28:48 10,592 05:40
286 565 PLANQUE Christophe 01:38:39 M2M 51 00:32:53 00:27:23 10,583 05:40
287 522 DEGRYSE David 01:38:40 M2M 52 00:32:54 00:27:24 10,581 05:40
288 916 CHEVRIER Laurent 01:38:43 M3M 23 00:32:57 00:24:50 Afc 10,576 05:40
289 890 BALCEREK Olivier 01:38:44 M3M 24 00:32:58 00:24:51 10,574 05:40
290 790 DOURLENS-MONCHY Jeremy 01:38:48 M0M 48 00:33:02 00:25:46 10,567 05:41
291 1020 LESNIAK Christian 01:38:51 M3M 25 00:33:05 00:24:58 10,561 05:41
292 835 DELCROIX Nicolas 01:38:52 M2M 53 00:33:06 00:27:36 Servins athletic club 10,560 05:41
293 792 WEPPE Ludovic 01:38:54 M1M 61 00:33:08 00:29:08 10,556 05:41
294 758 DUBOIS Helene 01:38:56 M0F 8 00:33:10 00:13:36 La vie active 10,553 05:41
295 525 KUBIAK Lionel 01:39:05 SEM 68 00:33:19 00:33:19 10,537 05:42
296 676 COURTIN Thomas 01:39:07 M0M 49 00:33:21 00:26:05 Acb 10,533 05:42
297 610 SANNIER Marc 01:39:10 M1M 62 00:33:24 00:29:24 Ascua 10,528 05:42
298 1037 DUBOIS Anthony 01:39:11 M0M 50 00:33:25 00:26:09 Ce alstom 10,526 05:42
299 936 DEBARGE Michael 01:39:15 M2M 54 00:33:29 00:27:59 10,519 05:42
300 691 OLESZYNSKI Sebastien 01:39:16 M1M 63 00:33:30 00:29:30 10,517 05:42
301 945 BUISINE Alexandre 01:39:25 JUM 2 00:33:39 00:12:49 Les expendables 10,501 05:43
302 594 BALLEUX Ludo 01:39:27 M0M 51 00:33:41 00:26:25 10,498 05:43
303 656 PRINCE Patrick 01:39:27 M2M 55 00:33:41 00:28:11 Coach sport sante 10,498 05:43
304 1011 BOUCHEZ David 01:39:29 M2M 56 00:33:43 00:28:13 Les gohellans - farbus - 10,494 05:43
305 985 LEPRETRE Sebastien 01:39:30 M0M 52 00:33:44 00:26:28 Les foulees des ecoles 10,492 05:43
306 773 GARIN Gregory 01:39:32 M1M 64 00:33:46 00:29:46 Servins athletic club 10,489 05:43
307 1086 JACKOWSKI Stephane 01:39:34 M0M 53 00:33:48 00:26:32 Cbm 10,485 05:43
308 879 DESQUEMACK Thibaur 01:39:42 M0M 54 00:33:56 00:26:40 10,471 05:44
309 447 CHAPPE Guillaume 01:39:42 M1M 65 00:33:56 00:29:56 10,471 05:44
310 1097 LEPRETRE Pierre 01:39:44 M0M 55 00:33:58 00:26:42 10,468 05:44
311 486 CIAMBERLANO Remi 01:39:45 SEM 69 00:33:59 00:33:59 10,466 05:44
312 957 COEURDASSIER Julian 01:39:46 JUM 3 00:34:00 00:13:10 Tad 10,464 05:44
313 1012 DELANGHE Patrick 01:39:46 M6M 1 00:34:00 00:00:00 10,464 05:44
314 968 LELEU Gilles 01:39:48 M2M 57 00:34:02 00:28:32 10,461 05:44
315 1076 PAILLART Gerard 01:39:48 M2M 58 00:34:02 00:28:32 Us biache 10,461 05:44
316 852 CARON Francois-xavier 01:39:55 SEM 70 00:34:09 00:34:09 Jogging club de lapugnoy 10,449 05:45
317 713 VOELKER Celine 01:39:56 SEF 9 00:34:10 00:16:34 10,447 05:45
318 712 LOCQUET Cedric 01:39:57 M1M 66 00:34:11 00:30:11 10,445 05:45
319 487 GALAIS Sebastien 01:39:58 M1M 67 00:34:12 00:30:12 10,443 05:45
320 1144 RIBEIRO Francisco 01:40:05 M4M 13 00:34:19 00:15:27 10,431 05:45
321 951 LEVOIR Patrick 01:40:06 M3M 26 00:34:20 00:26:13 Aubigny running 10,430 05:45
322 1089 ANSART Bertrand 01:40:06 M1M 68 00:34:20 00:30:20 10,430 05:45
323 760 WAREMBOURG Alexis 01:40:10 SEM 71 00:34:24 00:34:24 La vie active 10,423 05:45
324 1058 GORLOO Johnny 01:40:13 M1M 69 00:34:27 00:30:27 10,417 05:46
325 1048 PEUCH Frederic 01:40:14 M1M 70 00:34:28 00:30:28 10,416 05:46
326 422 BOULANGER Cedric 01:40:16 M2M 59 00:34:30 00:29:00 10,412 05:46
327 550 VIEQUE Karine 01:40:18 M2F 2 00:34:32 00:10:09 Longuenesse nature aventure 10,409 05:46
328 961 PREVOT Francois 01:40:20 M1M 71 00:34:34 00:30:34 10,405 05:46
329 593 AVINES Laurent 01:40:35 M3M 27 00:34:49 00:26:42 10,379 05:47
330 896 CAMPAGNE Remy 01:40:37 M0M 56 00:34:51 00:27:35 Courir au mont des cats 10,376 05:47
331 856 VAN-ASSCHE Gaetan 01:40:38 M1M 72 00:34:52 00:30:52 10,374 05:47
332 946 BUISINE Laurent 01:40:38 M3M 28 00:34:52 00:26:45 Les expendables 10,374 05:47
333 953 MERSAK Jean marie 01:40:39 M4M 14 00:34:53 00:16:01 10,373 05:47
334 1087 BLEUSE Gonzague 01:40:42 M3M 29 00:34:56 00:26:49 Seclin 10,367 05:47
335 733 WIART LEFEBVRE Barbara 01:40:43 M2F 3 00:34:57 00:10:34 10,366 05:47
336 734 WIART Jean-francois 01:40:44 M2M 60 00:34:58 00:29:28 10,364 05:47
337 514 POTEAU Jimmy 01:40:54 M1M 73 00:35:08 00:31:08 Ea st-quentin-en-yvelines 10,347 05:48
338 987 CARON Julien 01:40:58 SEM 72 00:35:12 00:35:12 10,340 05:48
339 591 DENYS Florent 01:40:58 M0M 57 00:35:12 00:27:56 10,340 05:48
340 497 MAGES Ludovic 01:40:59 M2M 61 00:35:13 00:29:43 Unirun 10,338 05:48
341 418 DUHAMEL Laurent 01:41:00 M1M 74 00:35:14 00:31:14 10,337 05:48
342 530 VEDRINE Clemence 01:41:01 SEF 10 00:35:15 00:17:39 10,335 05:48
343 641 COURTECUISSE Pierre 01:41:04 M0M 58 00:35:18 00:28:02 Csfm running 10,330 05:49
344 624 MATYBA Cyril 01:41:04 M0M 59 00:35:18 00:28:02 10,330 05:49
345 772 DEVIENNE Pascal 01:41:10 M4M 15 00:35:24 00:16:32 10,320 05:49
346 566 VANCLAIRE Valerie 01:41:12 M1F 3 00:35:26 00:10:27 10,316 05:49
347 932 PECHENET Matthieu 01:41:26 SEM 73 00:35:40 00:35:40 10,292 05:50
348 520 GRIMBERT Herve 01:41:28 M5M 3 00:35:42 00:09:45 Jc billy berclau 10,289 05:50
349 926 BASSEUX Paul 01:41:29 M4M 16 00:35:43 00:16:51 Rca arras 10,287 05:50
350 875 LELEU Jean-philippe 01:41:38 M2M 62 00:35:52 00:30:22 10,272 05:50
351 428 COATANEA Frederic 01:41:46 M1M 75 00:36:00 00:32:00 10,259 05:51
352 1046 LEVE Ludovic 01:41:49 M2M 63 00:36:03 00:30:33 As simencourt 10,254 05:51
353 781 BONY Jerome 01:42:00 M2M 64 00:36:14 00:30:44 10,235 05:52
354 684 DUBRULLE Gregory 01:42:00 M2M 65 00:36:14 00:30:44 10,235 05:52
355 941 HEBDA Max 01:42:02 M2M 66 00:36:16 00:30:46 10,232 05:52
356 548 DECRUCQ Ludovic 01:42:04 M1M 76 00:36:18 00:32:18 10,229 05:52
357 846 SABOT Olivier 01:42:07 M2M 67 00:36:21 00:30:51 Athletic club marcquois 10,224 05:52
358 826 SITARZ Guillaume 01:42:07 M0M 60 00:36:21 00:29:05 Run in douai 10,224 05:52
359 614 ALLIOT David 01:42:07 M3M 30 00:36:21 00:28:14 10,224 05:52
360 515 WATTEL Antoine 01:42:11 M2M 68 00:36:25 00:30:55 10,217 05:52
361 787 FLORVAL Vincent 01:42:18 M2M 69 00:36:32 00:31:02 Viking 10,205 05:53
362 694 KOPERSKI Lucie 01:42:18 M0F 9 00:36:32 00:16:58 Jog ablain 10,205 05:53
363 800 DUHAMEL Mathieu 01:42:20 SEM 74 00:36:34 00:36:34 Jog ablain 10,202 05:53
364 949 BAJEUX Patrick 01:42:23 M5M 4 00:36:37 00:10:40 10,197 05:53
365 549 LAGGOUN Sophie 01:42:26 SEF 11 00:36:40 00:19:04 10,192 05:53
366 538 VERPOORT Johan 01:42:31 SEM 75 00:36:45 00:36:45 10,184 05:54
367 783 DEISS Maxence 01:42:31 ESM 5 00:36:45 00:25:16 Asccap 10,184 05:54
368 975 ARNOULD Caroline 01:42:38 SEF 12 00:36:52 00:19:16 Expendables 10,172 05:54
369 810 DEROI Severe 01:42:43 M2M 70 00:36:57 00:31:27 Foulees athletiques de wasquehal 10,164 05:54
370 1002 PRUNELET Alexandre 01:42:45 M1M 77 00:36:59 00:32:59 10,161 05:54
371 948 MILLUY Ludovic 01:42:49 M0M 61 00:37:03 00:29:47 Sans club 10,154 05:55
372 868 PIERRON Gerald 01:42:50 M2M 71 00:37:04 00:31:34 10,152 05:55
373 764 PONSIN Adeline 01:42:52 SEF 13 00:37:06 00:19:30 La vie active 10,149 05:55
374 1128 DELANNOY Pearl 01:42:56 M1F 4 00:37:10 00:12:11 10,142 05:55
375 731 CHOPIN Pierre 01:42:58 SEM 76 00:37:12 00:37:12 10,139 05:55
376 762 OUTREQUIN Matthieu 01:43:00 SEM 77 00:37:14 00:37:14 La vie active 10,136 05:55
377 973 LESNIAK Philippe 01:43:05 M2M 72 00:37:19 00:31:49 Coach sport sante 10,128 05:55
378 912 BOSSU Patrick 01:43:06 M4M 17 00:37:20 00:18:28 10,126 05:56
379 799 VALEMBOIS Adele 01:43:25 SEF 14 00:37:39 00:20:03 10,095 05:57
380 838 HERENGUEL Vivien 01:43:28 SEM 78 00:37:42 00:37:42 10,090 05:57
381 977 MIRAUX Delphine 01:43:28 M1F 5 00:37:42 00:12:43 10,090 05:57
382 444 COURTAT Jean-rene 01:43:30 M6M 2 00:37:44 00:03:44 Jogazelec 10,087 05:57
383 683 BONJOUR Laurent 01:43:38 M2M 73 00:37:52 00:32:22 10,074 05:57
384 1118 KOWANDY Antoine 01:43:42 SEM 79 00:37:56 00:37:56 10,068 05:58
385 864 LEROUX Clement 01:43:43 SEM 80 00:37:57 00:37:57 10,066 05:58
386 628 BALLIGAND Maxime 01:43:44 SEM 81 00:37:58 00:37:58 Team triathlon maubeuge 10,064 05:58
387 587 CARON Valentin 01:43:45 SEM 82 00:37:59 00:37:59 10,063 05:58
388 992 MARQUETTE Jean paul 01:43:46 M2M 74 00:38:00 00:32:30 10,061 05:58
389 707 DUBOIS Alain 01:43:47 M5M 5 00:38:01 00:12:04 10,059 05:58
390 798 GILLION Remi 01:43:48 SEM 83 00:38:02 00:38:02 10,058 05:58
391 540 BRABANT Marie 01:43:50 SEF 15 00:38:04 00:20:28 10,055 05:58
392 498 ROYER Stephane 01:43:50 M2M 75 00:38:04 00:32:34 10,055 05:58
393 460 TELLIER Thibaut 01:43:55 M0M 62 00:38:09 00:30:53 Ce alstom commission jogging 10,047 05:58
394 1133 MARTIN Sophie 01:43:55 SEF 16 00:38:09 00:20:33 10,047 05:58
395 469 JACQUIN Fabrice 01:44:05 M1M 78 00:38:19 00:34:19 10,030 05:59
396 675 MANZANO Manuel 01:44:08 M0M 63 00:38:22 00:31:06 Courir dans le lumbrois 10,026 05:59
397 994 SENIS Jeremy 01:44:10 SEM 84 00:38:24 00:38:24 10,022 05:59
398 445 LE DUC Pierrick 01:44:12 M0M 64 00:38:26 00:31:10 10,019 05:59
399 457 DISTINGUIN Sandrine 01:44:20 M2F 4 00:38:34 00:14:11 10,006 06:00
400 1059 GILLOT Denis 01:44:28 M2M 76 00:38:42 00:33:12 Jcbb 9,994 06:00
401 930 CARREZ Julien 01:44:28 SEM 85 00:38:42 00:38:42 9,994 06:00
402 727 DUBOIS Pierre 01:44:43 M4M 18 00:38:57 00:20:05 9,970 06:01
403 954 CREVITS Mathilde 01:44:48 SEF 17 00:39:02 00:21:26 Run'in club 9,962 06:01
404 636 BACQ Bernard 01:44:50 M5M 6 00:39:04 00:13:07 Footing club de bours 9,959 06:01
405 642 DELEFORTERIE Damien 01:44:56 M1M 79 00:39:10 00:35:10 Csfm running 9,949 06:02
406 463 LEMAITRE Maxime 01:44:57 M1M 80 00:39:11 00:35:11 Ce alstom 9,948 06:02
407 437 PERRIN Jean-christophe 01:44:57 M2M 77 00:39:11 00:33:41 Val d'orge athletic 9,948 06:02
408 865 LEWILLE Patrice 01:45:02 M2M 78 00:39:16 00:33:46 9,940 06:02
409 506 COUPE Gregory 01:45:04 M2M 79 00:39:18 00:33:48 9,937 06:02
410 585 COCHETEUX David 01:45:07 M2M 80 00:39:21 00:33:51 9,932 06:02
411 1014 GUEDE Xavier 01:45:15 M3M 31 00:39:29 00:31:22 Rca 9,919 06:03
412 453 BENTZ Pascal 01:45:17 M2M 81 00:39:31 00:34:01 9,916 06:03
413 784 DEISS Olivier 01:45:18 M3M 32 00:39:32 00:31:25 Asccap 9,915 06:03
414 659 DUVAL Thierry 01:45:24 M2M 82 00:39:38 00:34:08 9,905 06:03
415 517 CAINE Frederic 01:45:26 M2M 83 00:39:40 00:34:10 9,902 06:04
416 983 VERDIERE Isabelle 01:45:27 M3F 2 00:39:41 00:10:36 Aubigny running 9,900 06:04
417 1074 POUCHAIN Florence 01:45:27 M2F 5 00:39:41 00:15:18 Aubigny running 9,900 06:04
418 1138 TURPIN Camille 01:45:35 SEF 18 00:39:49 00:22:13 9,888 06:04
419 1026 KOLFENTER Charles henri 01:45:41 SEM 86 00:39:55 00:39:55 9,879 06:04
420 845 OTJACQUES Eleonore 01:45:43 M0F 10 00:39:57 00:20:23 9,875 06:05
421 902 SEGARD Pascal 01:45:43 M3M 33 00:39:57 00:31:50 9,875 06:05
422 1117 LITTAYE Aurelie 01:45:44 M1F 6 00:39:58 00:14:59 Rc arras 9,874 06:05
423 978 CHEMIN Benoit 01:45:45 M1M 81 00:39:59 00:35:59 9,872 06:05
424 1013 DEBRIL Stephanie 01:45:57 M1F 7 00:40:11 00:15:12 Jogging club montignygnois 9,854 06:05
425 464 PANNETIER Benoit 01:45:57 M1M 82 00:40:11 00:36:11 Ce alstom 9,854 06:05
426 552 DEWAMBRECHIES Elise 01:45:57 SEF 19 00:40:11 00:22:35 9,854 06:05
427 420 RENIER Karine 01:45:58 SEF 20 00:40:12 00:22:36 9,852 06:05
428 858 KWIECIAK Freddy 01:46:08 M3M 34 00:40:22 00:32:15 9,837 06:06
429 960 KLEPAL Herve 01:46:08 M2M 84 00:40:22 00:34:52 Altraman 9,837 06:06
430 1095 DOUAY Isabelle 01:46:10 SEF 21 00:40:24 00:22:48 9,834 06:06
431 553 VERMELLE Benoit 01:46:11 M1M 83 00:40:25 00:36:25 9,832 06:06
432 454 THIEBAULT Stephane 01:46:19 M2M 85 00:40:33 00:35:03 Val d'orge athletic 9,820 06:07
433 1057 IOOS Beatrice 01:46:31 M2F 6 00:40:45 00:16:22 Footing club de bours 9,801 06:07
434 1145 MARQUETTE Fabrice 01:46:31 M1M 84 00:40:45 00:36:45 Team du dimanche 9,801 06:07
435 505 DUPIRE Cedric 01:46:39 M1M 85 00:40:53 00:36:53 9,789 06:08
436 669 DUVAL Corinne 01:46:40 M4F 1 00:40:54 00:00:00 Rca arras 9,788 06:08
437 467 BOUTON Michel 01:46:40 M7M 1 00:40:54 00:00:00 Servins ac 9,788 06:08
438 823 SEGALLA Antoine 01:46:41 EAM 1 00:40:55 00:00:00 Foulees athletiques de wasquehal 9,786 06:08
439 679 LOIRS Loic 01:46:44 SEM 87 00:40:58 00:40:58 9,781 06:08
440 554 FIEF Christophe 01:46:46 M1M 86 00:41:00 00:37:00 9,778 06:08
441 1069 PARENTY Stephane 01:46:52 M2M 86 00:41:06 00:35:36 Rc arras 9,769 06:09
442 1070 CUVILLIER Ingrid 01:46:52 M1F 8 00:41:06 00:16:07 Rc arras 9,769 06:09
443 913 HERSOEN Estelle 01:46:54 M3F 3 00:41:08 00:12:03 Rc arras 9,766 06:09
444 722 BARTHLEN Franck 01:47:00 M2M 87 00:41:14 00:35:44 Planete running 9,757 06:09
445 904 MARGAS Raphael 01:47:03 M1M 87 00:41:17 00:37:17 Tamashii dojo sequedin 9,752 06:09
446 860 BAUDOUX Aurelien 01:47:03 M1M 88 00:41:17 00:37:17 9,752 06:09
447 989 UNG Alexis 01:47:03 M0M 65 00:41:17 00:34:01 9,752 06:09
448 906 ALLELY Isabelle 01:47:05 M3F 4 00:41:19 00:12:14 Arras 9,749 06:09
449 863 DHAYER Bruno 01:47:35 M1M 89 00:41:49 00:37:49 Us biache 9,704 06:11
450 1082 DHAUSSY Laurent 01:47:38 M1M 90 00:41:52 00:37:52 9,700 06:11
451 1106 NOTERDAME Alice 01:47:39 SEF 22 00:41:53 00:24:17 9,698 06:11
452 788 TANGHE David 01:47:43 M2M 88 00:41:57 00:36:27 9,692 06:11
453 963 YARD Frederic 01:47:44 M3M 35 00:41:58 00:33:51 Us biache saint waast 9,691 06:11
454 667 DELEFOSSE Vincent 01:47:46 SEM 88 00:42:00 00:42:00 9,688 06:12
455 539 MALAPEL Maud 01:47:47 M0F 11 00:42:01 00:22:27 9,686 06:12
456 869 BROSS Cyrille 01:47:53 M1M 91 00:42:07 00:38:07 9,677 06:12
457 903 LECHAT Laurent 01:48:02 M0M 66 00:42:16 00:35:00 9,664 06:13
458 925 RICQUEBOURG Caroline 01:48:02 M1F 9 00:42:16 00:17:17 9,664 06:13
459 479 VIELJEUF Lea 01:48:04 SEF 23 00:42:18 00:24:42 Rca triathlon 9,661 06:13
460 495 MATTON Angelique 01:48:05 M1F 10 00:42:19 00:17:20 9,659 06:13
461 496 VIELJEUF Olivier 01:48:06 M3M 36 00:42:20 00:34:13 9,658 06:13
462 471 COURTIN Ludovic 01:48:16 M1M 92 00:42:30 00:38:30 9,643 06:13
463 735 CAMBIER Jean-christophe 01:48:33 M1M 93 00:42:47 00:38:47 9,618 06:14
464 750 TACK Dany 01:48:35 M6M 3 00:42:49 00:08:49 9,615 06:14
465 449 DILLY Sandrine 01:48:47 M1F 11 00:43:01 00:18:02 Jogging club montignois jcm 9,597 06:15
466 877 BREMARD Vincent 01:48:48 M2M 89 00:43:02 00:37:32 9,596 06:15
467 782 ROCHE Veronique 01:48:49 M2F 7 00:43:03 00:18:40 Rc arras 9,594 06:15
468 1038 BRUNIAU Olivier 01:48:52 M1M 94 00:43:06 00:39:06 Team impala 9,590 06:15
469 895 DUHAMEL Harold 01:48:53 M1M 95 00:43:07 00:39:07 Us athletique de lievin 9,588 06:15
470 492 VASSEUR Tony 01:48:53 M2M 90 00:43:07 00:37:37 9,588 06:15
471 1047 LAIGLE Antoine 01:48:59 M1M 96 00:43:13 00:39:13 9,579 06:16
472 719 VAN DEN BERGHE Frederic 01:49:01 M3M 37 00:43:15 00:35:08 9,577 06:16
473 718 COUSIN Guillaume 01:49:03 M1M 97 00:43:17 00:39:17 9,574 06:16
474 489 DERVEAUX Estelle 01:49:05 SEF 24 00:43:19 00:25:43 9,571 06:16
475 468 COIN Julien 01:49:06 M0M 67 00:43:20 00:36:04 Ce alstom petite foret 9,569 06:16
476 408 MORTELECQUE Amandine 01:49:20 SEF 25 00:43:34 00:25:58 9,549 06:17
477 872 CRESPIN Nicolas 01:49:21 M2M 91 00:43:35 00:38:05 9,547 06:17
478 441 LEVECQUE Arnaud 01:49:22 M0M 68 00:43:36 00:36:20 9,546 06:17
479 423 DIEULESAINT Remi 01:49:22 M0M 69 00:43:36 00:36:20 9,546 06:17
480 935 DEVYS Jean-christophe 01:49:23 M2M 92 00:43:37 00:38:07 9,544 06:17
481 638 BAR Frederic 01:49:31 M1M 98 00:43:45 00:39:45 Csfm running 9,533 06:18
482 451 TOMKA Virginie 01:49:34 M3F 5 00:43:48 00:14:43 9,528 06:18
483 755 BOURGEOIS Olivier 01:49:44 M2M 93 00:43:58 00:38:28 La vie active 9,514 06:18
484 939 DESPREZ Patrick 01:49:45 M6M 4 00:43:59 00:09:59 9,513 06:18
485 881 BOUQUET Benjamin 01:49:53 SEM 89 00:44:07 00:44:07 Bethune athletisme 9,501 06:19
486 1134 ANNEBICQUE Michel 01:49:54 M1M 99 00:44:08 00:40:08 9,500 06:19
487 708 FREMERY Frederic 01:49:55 M0M 70 00:44:09 00:36:53 9,498 06:19
488 749 PASSEL Anne valerie 01:50:04 M2F 8 00:44:18 00:19:55 Coach sport sante 9,485 06:20
489 632 HUMEZ Denis 01:50:05 M5M 7 00:44:19 00:18:22 Rca 9,484 06:20
490 576 REMY Bertrand 01:50:19 M2M 94 00:44:33 00:39:03 Rc arras 9,464 06:20
491 580 PAUL Geoffrey 01:50:20 M0M 71 00:44:34 00:37:18 9,462 06:20
492 811 EVRARD Olivier 01:50:27 SEM 90 00:44:41 00:44:41 Foulees athletiques de wasquehal 9,452 06:21
493 440 DEWAILLY Catherine 01:50:34 SEF 26 00:44:48 00:27:12 9,442 06:21
494 1081 DECAYEUX Scott 01:50:44 SEM 91 00:44:58 00:44:58 9,428 06:22
495 557 BAUDUIN Jean-marie 01:50:45 M3M 38 00:44:59 00:36:52 9,427 06:22
496 742 PEYREN Nathan 01:50:49 ESM 6 00:45:03 00:33:34 9,421 06:22
497 483 BEGHYN Julien 01:51:08 M0M 72 00:45:22 00:38:06 9,394 06:23
498 751 WYART Baptiste 01:51:09 M0M 73 00:45:23 00:38:07 9,393 06:23
499 611 DUPUIS Mathieu 01:51:10 SEM 92 00:45:24 00:45:24 Running club noyellois 9,391 06:23
500 1115 MACIEJEWSKI Romain 01:51:15 M0M 74 00:45:29 00:38:13 Les foulees des ecoles 9,384 06:24
501 626 MOUTON Benoit 01:51:18 M3M 39 00:45:32 00:37:25 Estrun de bon pied 9,380 06:24
502 630 PETIT Frederic 01:51:22 M4M 19 00:45:36 00:26:44 9,374 06:24
503 450 DURIEZ Florian 01:51:27 SEM 93 00:45:41 00:45:41 Osa athletisme 9,367 06:24
504 797 BELBIS Martin 01:51:32 M1M 100 00:45:46 00:41:46 Usa lievin 9,360 06:25
505 596 DELATTRE Sylvain 01:51:34 M3M 40 00:45:48 00:37:41 9,358 06:25
506 971 DE MIRANDA Christine 01:51:39 M1F 12 00:45:53 00:20:54 Jogging cross bully 9,351 06:25
507 732 VISTICOT Sophie 01:51:43 M1F 13 00:45:57 00:20:58 9,345 06:25
508 1077 LEBAS Nicolas 01:51:45 M1M 101 00:45:59 00:41:59 Run'in club 9,342 06:25
509 678 DAIGNEZ Dorothee 01:51:47 M0F 12 00:46:01 00:26:27 Fit and run 9,339 06:25
510 474 LAMBERT Guillaume 01:51:49 M2M 95 00:46:03 00:40:33 9,337 06:26
511 791 SMIRAOUI Aicha 01:52:11 M3F 6 00:46:25 00:17:20 1767043 9,306 06:27
512 524 KUBIAK Samuel 01:52:12 M0M 75 00:46:26 00:39:10 9,305 06:27
513 1143 LEROUX Antoine 01:52:13 SEM 94 00:46:27 00:46:27 9,303 06:27
514 757 CAPELLE Laurent 01:52:17 EAM 2 00:46:31 00:05:36 La vie active 9,298 06:27
515 897 MASTROIANNI Julien 01:52:19 M0M 76 00:46:33 00:39:17 9,295 06:27
516 776 REGOST Nicolas 01:52:20 SEM 95 00:46:34 00:46:34 9,294 06:27
517 1107 BRUNEAU Thomas 01:52:23 M0M 77 00:46:37 00:39:21 9,290 06:28
518 1061 LEFEVRE Laurent 01:52:35 M2M 96 00:46:49 00:41:19 Jcbb 9,273 06:28
519 905 MAES Dominique 01:52:41 M4M 20 00:46:55 00:28:03 Saint   venant    atletisme 9,265 06:29
520 598 SCHNIER Frederic 01:52:45 M0M 78 00:46:59 00:39:43 9,259 06:29
521 571 DEVILLERS Caroline 01:52:46 SEF 27 00:47:00 00:29:24 Rca 9,258 06:29
522 1108 SEMAIN Anthony 01:52:47 SEM 96 00:47:01 00:47:01 9,257 06:29
523 952 HERBIN Gael 01:52:50 M0M 79 00:47:04 00:39:48 Expendables 9,253 06:29
524 531 COUPE Hugo 01:52:53 SEM 97 00:47:07 00:47:07 9,248 06:29
525 461 WUNDERLE Philippe 01:52:55 M4M 21 00:47:09 00:28:17 Val d'orge athletic 9,246 06:29
526 542 DUBUIS Nathalie 01:53:05 M1F 14 00:47:19 00:22:20 9,232 06:30
527 533 FRANQUET Jeanpierre 01:53:09 M3M 41 00:47:23 00:39:16 9,227 06:30
528 534 FRANQUET Laurie 01:53:10 M3F 7 00:47:24 00:18:19 9,225 06:30
529 943 LENOIR Charlotte 01:53:17 M1F 15 00:47:31 00:22:32 9,216 06:31
530 401 TETELIN Emmanuelle 01:53:19 M3F 8 00:47:33 00:18:28 Servins ac 9,213 06:31
531 575 CHARLET Gabriel 01:53:20 M3M 42 00:47:34 00:39:27 9,212 06:31
532 998 SZYJA Monique 01:53:26 M5F 1 00:47:40 00:00:00 Jogging club de lapugnoy 9,204 06:31
533 972 KREPA Nathalie 01:53:29 M2F 9 00:47:43 00:23:20 Arras 9,200 06:31
534 756 VISEUR Elodie 01:53:31 SEF 28 00:47:45 00:30:09 La vie active 9,197 06:31
535 652 FLANQUART Sebastien 01:53:37 M2M 97 00:47:51 00:42:21 9,189 06:32
536 433 BILLET Valentin 01:53:50 SEM 98 00:48:04 00:48:04 9,171 06:33
537 786 HUMEZ Nathalie 01:53:51 M3F 9 00:48:05 00:19:00 Us biache athletisme 9,170 06:33
538 878 RATAJCZAK Sophie 01:53:51 M1F 16 00:48:05 00:23:06 Us biache 9,170 06:33
539 1079 BERCHE Jerome 01:53:56 M1M 102 00:48:10 00:44:10 Rrm annezin 9,163 06:33
540 1140 ZELAZKO Samuel 01:54:02 M0M 80 00:48:16 00:41:00 9,155 06:33
541 402 MARTINET Yan 01:54:02 M1M 103 00:48:16 00:44:16 9,155 06:33
542 853 DELANNAY Franck 01:54:08 M2M 98 00:48:22 00:42:52 9,147 06:34
543 889 BRASSEUR Frederic 01:54:20 M2M 99 00:48:34 00:43:04 9,131 06:34
544 665 CARTON Olivier 01:54:29 M2M 100 00:48:43 00:43:13 9,119 06:35
545 664 KLEINPOORT Cecile 01:54:29 M0F 13 00:48:43 00:29:09 9,119 06:35
546 541 SOWINSKI Fabrice 01:54:31 M2M 101 00:48:45 00:43:15 Auvergne trail nature team 9,117 06:35
547 491 WIBAUT Maximr 01:54:48 SEM 99 00:49:02 00:49:02 Rca 9,094 06:36
548 680 LOIRS Justine 01:54:52 SEF 29 00:49:06 00:31:30 9,089 06:36
549 716 LEBRUN Estelle 01:54:53 SEF 30 00:49:07 00:31:31 Rc arras 9,087 06:36
550 726 LARQUET Mathieu 01:54:57 M0M 81 00:49:11 00:41:55 9,082 06:36
551 568 EL HAMINE Sarah 01:55:08 SEF 31 00:49:22 00:31:46 9,068 06:37
552 974 DUFAYE Pierre 01:55:09 SEM 100 00:49:23 00:49:23 9,066 06:37
553 744 LEROY Fabien 01:55:13 M3M 43 00:49:27 00:41:20 9,061 06:37
554 536 BAYAERT William 01:55:23 M3M 44 00:49:37 00:41:30 Athletic club achicourt 9,048 06:38
555 923 BASSEUX Mathilde 01:55:23 SEF 32 00:49:37 00:32:01 Rca arras 9,048 06:38
556 601 MOUSSAOUI Brigitte 01:55:38 M1F 17 00:49:52 00:24:53 9,029 06:39
557 602 JEANNOT Alexandra 01:55:38 M1F 18 00:49:52 00:24:53 9,029 06:39
558 646 ROUSSEAUX Sebastien 01:55:43 M0M 82 00:49:57 00:42:41 Csfm running 9,022 06:39
559 1005 SENIS Christophe 01:55:54 M2M 102 00:50:08 00:44:38 9,008 06:40
560 605 EVIN Sophie 01:56:00 M1F 19 00:50:14 00:25:15 Lievin 9,000 06:40
561 794 THEVENY Stephane 01:56:00 M0M 83 00:50:14 00:42:58 9,000 06:40
562 1063 DUHEM Aurelie 01:56:00 M1F 20 00:50:14 00:25:15 Jcbb 9,000 06:40
563 1040 BUTTOLO Christian 01:56:05 M4M 22 00:50:19 00:31:27 Dac dainville 8,994 06:40
564 600 MOUSSAOUI Jean francois 01:56:08 M1M 104 00:50:22 00:46:22 8,990 06:40
565 1045 LARDEMELLE Carole 01:56:09 M3F 10 00:50:23 00:21:18 Dainville athletic club 8,988 06:41
566 1060 DELEURY Deleury 01:56:10 M1F 21 00:50:24 00:25:25 Jcbb 8,987 06:41
567 739 MAYEUX Melanie 01:56:18 M0F 14 00:50:32 00:30:58 Acva 8,977 06:41
568 573 OGAR Annick 01:56:22 M4F 2 00:50:36 00:09:42 8,972 06:41
569 815 LING Isabelle 01:56:24 M2F 10 00:50:38 00:26:15 Foulees athletiques de wasquehal 8,969 06:41
570 473 DUQUESNE Franck 01:56:28 M2M 103 00:50:42 00:45:12 8,964 06:42
571 647 TURLOTTE Maxime 01:56:29 M1M 105 00:50:43 00:46:43 Csfm running 8,963 06:42
572 668 DANQUIGNY Sandrine 01:57:17 M3F 11 00:51:31 00:22:26 8,902 06:44
573 432 LEWILLE Aude 01:57:32 SEF 33 00:51:46 00:34:10 8,883 06:45
574 407 QUENTIN Gerald 01:57:37 M1M 106 00:51:51 00:47:51 8,876 06:46
575 809 DUBOIS Virginie 01:57:40 M1F 22 00:51:54 00:26:55 Foulees athletiques de wasquehal 8,873 06:46
576 1033 CASIER Isabelle 01:57:43 M4F 3 00:51:57 00:11:03 Vermelles athletic club 8,869 06:46
577 644 ROSIAUX Jean louis 01:57:44 M5M 8 00:51:58 00:26:01 Csfm running 8,867 06:46
578 1036 SUEUR Anne sophie 01:57:44 M1F 23 00:51:58 00:26:59 Vermelles athletic club 8,867 06:46
579 589 DAUCHEZ Jocelyne 01:57:49 M3F 12 00:52:03 00:22:58 8,861 06:46
580 900 LAGACHE Estelle 01:58:14 M3F 13 00:52:28 00:23:23 Us biache 8,830 06:48
581 1083 VAAST Simon 01:58:26 M5M 9 00:52:40 00:26:43 Club sportif ibm france 8,815 06:48
582 563 KUMM Jerome 01:58:28 M2M 104 00:52:42 00:47:12 8,813 06:49
583 911 RZASA Emmanuel 01:58:45 M3M 45 00:52:59 00:44:52 8,792 06:49
584 603 SCHORIELS Sandrine 01:59:18 M2F 11 00:53:32 00:29:09 Trail again 8,751 06:51
585 907 CARLUER Jennifer 01:59:24 SEF 34 00:53:38 00:36:02 8,744 06:52
586 1050 MIETTE Marie 01:59:27 SEF 35 00:53:41 00:36:05 Servin 8,740 06:52
587 1051 MIETTE Gabin 01:59:28 M0M 84 00:53:42 00:46:26 Servin 8,739 06:52
588 681 LEFLON Guillaume 01:59:44 M0M 85 00:53:58 00:46:42 Team du dimanche 8,719 06:53
589 609 ALLART Christophe 01:59:46 M3M 46 00:54:00 00:45:53 Jogging club de lapugnoy 8,717 06:53
590 621 NOESON Lynda 01:59:50 M2F 12 00:54:04 00:29:41 8,712 06:53
591 673 SKOWRON Thierry 01:59:55 M2M 105 00:54:09 00:48:39 Sans 8,706 06:54
592 832 DWORACZEK Mathias 02:00:11 SEM 101 00:54:25 00:54:25 8,687 06:54
593 741 PEYREN Jean yves 02:00:26 M3M 47 00:54:40 00:46:33 8,669 06:55
594 574 VILLAIN Rene 02:00:28 M7M 2 00:54:42 00:13:48 8,666 06:55
595 1129 LEBBE Thomas 02:00:44 M2M 106 00:54:58 00:49:28 8,647 06:56
596 1116 LITTAYE Mathieu 02:00:51 M2M 107 00:55:05 00:49:35 Rc arras 8,639 06:57
597 979 RITI Gregory 02:01:05 SEM 102 00:55:19 00:55:19 8,622 06:58
598 964 RAINGUEZ Thomas 02:01:05 SEM 103 00:55:19 00:55:19 8,622 06:58
599 991 ZWERTVAEGHER Philippe 02:01:24 M6M 5 00:55:38 00:21:38 8,600 06:59
600 403 RENARD Laurie 02:01:28 M1F 24 00:55:42 00:30:43 8,595 06:59
601 529 CANNATA Bruno 02:01:29 M2M 108 00:55:43 00:50:13 8,594 06:59
602 409 LEVE David 02:01:37 M3M 48 00:55:51 00:47:44 Team pmb 8,584 06:59
603 909 NACCARATO Celine 02:01:38 M0F 15 00:55:52 00:36:18 8,583 06:59
604 910 KOZAK Delphine 02:01:38 M0F 16 00:55:52 00:36:18 8,583 06:59
605 470 TOME Julien 02:01:39 SEM 104 00:55:53 00:55:53 8,582 06:59
606 616 DESPREZ Thomas 02:01:49 M1M 107 00:56:03 00:52:03 8,570 07:00
607 528 MACKOWIAK Claude 02:01:56 M4M 23 00:56:10 00:37:18 8,562 07:00
608 526 DERAM Valentin 02:01:56 SEM 105 00:56:10 00:56:10 8,562 07:00
609 700 MEURIN Christelle 02:02:13 M2F 13 00:56:27 00:32:04 8,542 07:01
610 689 CRESSON Stephanie 02:02:25 M1F 25 00:56:39 00:31:40 8,528 07:02
611 558 MASCLET Marie 02:02:25 SEF 36 00:56:39 00:39:03 8,528 07:02
612 510 LAMIAUX Elodie 02:02:36 M0F 17 00:56:50 00:37:16 8,515 07:03
613 597 HONORE Audrey 02:02:53 SEF 37 00:57:07 00:39:31 8,496 07:04
614 615 LETOQUART Jean 02:02:57 M2M 109 00:57:11 00:51:41 8,491 07:04
615 535 NIEDZWIEDZ Donatien 02:03:03 SEM 106 00:57:17 00:57:17 8,484 07:04
616 481 HIMEUR Francis 02:03:08 M3M 49 00:57:22 00:49:15 Nef 8,479 07:05
617 482 GORA Elia 02:03:08 ESF 2 00:57:22 00:28:37 Nef 8,479 07:05
618 480 TREHOUX Nathalie 02:03:09 M3F 14 00:57:23 00:28:18 Nef 8,477 07:05
619 1041 BLANCKAERT Catherine 02:03:30 M3F 15 00:57:44 00:28:39 8,453 07:06
620 737 TATERKA Cedric 02:03:49 M1M 108 00:58:03 00:54:03 La champ&run team 8,432 07:07
621 940 DESPREZ PIZIER Isabelle 02:04:35 M5F 2 00:58:49 00:11:09 8,380 07:10
622 837 PRZYDROZNY Adeline 02:05:08 SEF 38 00:59:22 00:41:46 8,343 07:11
623 942 FREZIER Christophe 02:05:15 M2M 110 00:59:29 00:53:59 Vermelles 8,335 07:12
624 1030 WALLARD Sophie 02:05:15 M1F 26 00:59:29 00:34:30 Vermelles athletic club 8,335 07:12
625 1004 COTTEL Ludivine 02:05:21 M1F 27 00:59:35 00:34:36 8,329 07:12
626 1003 JULIE Goubet 02:05:21 M0F 18 00:59:35 00:40:01 8,329 07:12
627 703 DI SALVO Herve 02:05:25 M2M 111 00:59:39 00:54:09 8,324 07:12
628 753 LEJOSNE Julien 02:05:25 M0M 86 00:59:39 00:52:23 Acb 8,324 07:12
629 1022 BIGAYON Mickael 02:05:27 M1M 109 00:59:41 00:55:41 A.c.b 8,322 07:13
630 1053 PIERRON Laurence 02:05:28 M2F 14 00:59:42 00:35:19 8,321 07:13
631 1054 PIERRON Sebastien 02:05:28 M2M 112 00:59:42 00:54:12 8,321 07:13
632 874 MAIRE VIGUEUR Roland 02:05:39 M7M 3 00:59:53 00:18:59 8,309 07:13
633 995 THERY Virginie 02:05:52 M2F 15 01:00:06 00:35:43 Association courir a bapaume 8,294 07:14
634 988 ZULIANI Eddy 02:05:52 M2M 113 01:00:06 00:54:36 Acb 8,294 07:14
635 806 BERNICOT Olivier 02:05:53 M3M 50 01:00:07 00:52:00 Foulees athletiques de wasquehal 8,293 07:14
636 819 PISTILLO Antonio 02:05:54 M4M 24 01:00:08 00:41:16 Foulees athletiques de wasquehal 8,292 07:14
637 805 BERNICOT Ludivine 02:05:54 M1F 28 01:00:08 00:35:09 Foulees athletiques de wasquehal 8,292 07:14
638 821 PROVOT Philippe 02:05:54 M4M 25 01:00:08 00:41:16 Foulees athletiques de wasquehal 8,292 07:14
639 619 LONGEPEE Philippe 02:05:55 M4M 26 01:00:09 00:41:17 8,291 07:14
640 820 ROUSSEL Vincent 02:05:55 M3M 51 01:00:09 00:52:02 Foulees athletiques de wasquehal 8,291 07:14
641 962 HOCHART Laurent 02:06:05 M2M 114 01:00:19 00:54:49 8,280 07:15
642 937 DEBARGE Sylvie 02:06:11 M2F 16 01:00:25 00:36:02 8,274 07:15
643 1141 AMEL Boumedienne 02:06:22 M3M 52 01:00:36 00:52:29 8,262 07:16
644 1017 PATTYN Beatrice 02:06:29 M3F 16 01:00:43 00:31:38 8,254 07:16
645 687 MENU Elsie 02:06:31 M2F 17 01:00:45 00:36:22 8,252 07:16
646 688 MENU Jerome 02:06:32 M2M 115 01:00:46 00:55:16 8,251 07:16
647 697 POCLET Patrice 02:06:33 M4M 27 01:00:47 00:41:55 8,250 07:16
648 507 HONORE Bruno 02:06:50 M4M 28 01:01:04 00:42:12 8,231 07:17
649 465 DUVAL Benedicte 02:06:53 M0F 19 01:01:07 00:41:33 8,228 07:18
650 990 DECLERCQ Alain 02:07:04 M3M 53 01:01:18 00:53:11 8,216 07:18
651 696 BONNET Sandrine 02:07:09 M3F 17 01:01:23 00:32:18 8,211 07:18
652 1042 BLANCKAERT Yves 02:07:38 M4M 29 01:01:52 00:43:00 Ea douchy 8,180 07:20
653 417 HARBION Sylvain 02:07:43 M2M 116 01:01:57 00:56:27 Acb bapaume 8,174 07:20
654 654 LEQUINT Michel 02:08:08 M6M 6 01:02:22 00:28:22 8,148 07:22
655 653 LEQUINT Monique 02:08:08 M5F 3 01:02:22 00:14:42 8,148 07:22
656 472 BETHOUART Valerie 02:08:15 M3F 18 01:02:29 00:33:24 8,140 07:22
657 1015 LEQUINT Delphine 02:08:22 M1F 29 01:02:36 00:37:37 8,133 07:23
658 763 WADOUX Sophie 02:08:38 SEF 39 01:02:52 00:45:16 La vie active 8,116 07:24
659 761 DUHAMEL Cecilia 02:08:38 M1F 30 01:02:52 00:37:53 La vie active 8,116 07:24
660 670 HUART Jean francois 02:09:07 M4M 30 01:03:21 00:44:29 8,086 07:25
661 817 MOUKAGNI PELZER Marie 02:09:10 M1F 31 01:03:24 00:38:25 Foulees athletiques de wasquehal 8,083 07:25
662 1019 COLMANT Philippe 02:09:26 M6M 7 01:03:40 00:29:40 8,066 07:26
663 855 GABILLON Aurore 02:10:16 M2F 18 01:04:30 00:40:07 8,014 07:29
664 891 LETOCART Rudy 02:10:18 M1M 110 01:04:32 01:00:32 8,012 07:29
665 651 FLANQUART Karine 02:10:40 M1F 32 01:04:54 00:39:55 7,990 07:31
666 1127 GORECKI Rene 02:10:54 M5M 10 01:05:08 00:39:11 7,976 07:31
667 430 RICHARD Andre 02:11:04 M2M 117 01:05:18 00:59:48 7,965 07:32
668 710 DELMAIRE Christian 02:11:32 M3M 54 01:05:46 00:57:39 7,937 07:34
669 595 DEGORGUE Fred 02:11:32 M3M 55 01:05:46 00:57:39 7,937 07:34
670 577 HOLIN Isabelle 02:11:50 M2F 19 01:06:04 00:41:41 Rca arras 7,919 07:35
671 866 DEHAY Corinne 02:12:51 M2F 20 01:07:05 00:42:42 7,858 07:38
672 564 DEVISME Ludovic 02:13:11 SEM 107 01:07:25 01:07:25 7,839 07:39
673 404 CAPRON Stephanie 02:13:14 M2F 21 01:07:28 00:43:05 7,836 07:39
674 637 NOWACKI Isabelle 02:15:07 M1F 33 01:09:21 00:44:22 Csfm running 7,727 07:46
675 1028 PETIT David 02:15:08 M2M 118 01:09:22 01:03:52 7,726 07:46
676 947 DEBEAUMONT Laurence 02:15:26 M3F 19 01:09:40 00:40:35 Jcb bully 7,709 07:47
677 698 FASSARD Nicolas 02:15:51 M1M 111 01:10:05 01:06:05 7,685 07:48
678 699 FASSARD Karine 02:15:51 M3F 20 01:10:05 00:41:00 7,685 07:48
679 754 SERRURIER Aurore 02:16:17 M0F 20 01:10:31 00:50:57 7,661 07:50
680 405 VAAST Celine 02:16:18 M0F 21 01:10:32 00:50:58 7,660 07:50
681 512 PASBECQ Christophe 02:16:21 M3M 56 01:10:35 01:02:28 Servins athletic club 7,657 07:50
682 537 ANSART Celine 02:16:41 M1F 34 01:10:55 00:45:56 7,638 07:51
683 455 THIEBAULT Silvia 02:17:17 M2F 22 01:11:31 00:47:08 Val d'orge athletic 7,605 07:53
684 438 DURAO Valerie 02:17:18 M3F 21 01:11:32 00:42:27 Val d'orge athletic 7,604 07:53
685 1093 OLIVIER Bertrand 02:18:15 M2M 119 01:12:29 01:06:59 7,552 07:57
686 1068 SZEWCZYK Marie amelie 02:18:16 M1F 35 01:12:30 00:47:31 Triathlon club lievin 7,551 07:57
687 662 DUWAT Rene 02:19:53 M8M 1 01:14:07 00:00:00 7,463 08:02
688 725 DELIENNE Marie-christine 02:20:16 M3F 22 01:14:30 00:45:25 Jogging cross bully 7,443 08:04
689 849 VAN MAEL Marion 02:20:18 SEF 40 01:14:32 00:56:56 7,441 08:04
690 854 CHARLIER Lucie 02:20:24 M0F 22 01:14:38 00:55:04 7,436 08:04
691 1009 DECAUX Cedric 02:22:02 M1M 112 01:16:16 01:12:16 7,350 08:10